Weather History for Ely, MN

Change the Weather History Date:

Thursday, June 27, 2013

  Actual Average Record
Temperature  
Mean Temperature 70 °F -  
Max Temperature 80 °F 72 °F 89 °F (2001)
Min Temperature 60 °F 51 °F 35 °F (2002)
Cooling Degree Days 5    
Growing Degree Days 20 (Base 50)    
Moisture  
Dew Point 59 °F    
Average Humidity 72    
Maximum Humidity 94    
Minimum Humidity 42    
Precipitation  
Precipitation 0.02 in - - ()
Sea Level Pressure  
Sea Level Pressure 29.72 in    
Wind  
Wind Speed 5 mph (West)    
Max Wind Speed 20 mph    
Max Gust Speed 28 mph    
Visibility 10 miles    
Events Rain , Thunderstorm    
Averages and records for this station are not official NWS values.
T = Trace of Precipitation, MM = Missing Value Source: NWS Daily Summary

Daily Weather History Graph

Daily Weather History Graph

Search for Another Location

Airport:

Trip Planner

Search our weather history database for the weather conditions in past years. The results will help you decide how hot, cold, wet, or windy it might be!

Date:

Astronomy

Jun. 27, 2013 Rise Set
Actual Time 5:10 AM CDT 9:10 PM CDT
Civil Twilight 4:29 AM CDT 9:50 PM CDT
Nautical Twilight 3:32 AM CDT 10:47 PM CDT
Astronomical Twilight 1:59 AM CDT 12:19 AM CDT
Moon 11:41 PM CDT (6/27) 10:35 AM CDT (6/27)
Length of Visible Light 17h 21m
Length of Day
15h 59m
Waning Gibbous, 76% of the Moon is Illuminated
Jun 27
Waning Gibbous
Jun 29
Last Quarter
Jul 8
New
Jul 15
First Quarter
Jul 22
Full

Hourly Weather History & Observations

Time (CDT) Temp. Heat Index Dew Point Humidity Pressure Visibility Wind Dir Wind Speed Gust Speed Precip Events Conditions
12:13 AM 66.2 °F - 62.6 °F 88% 29.75 in 10.0 mi WSW 3.5 mph - N/A   Clear
12:33 AM 64.4 °F - 62.6 °F 94% 29.75 in 10.0 mi WSW 3.5 mph - N/A   Clear
12:52 AM 62.6 °F - 60.8 °F 94% 29.75 in 10.0 mi West 4.6 mph - N/A   Clear
1:13 AM 64.4 °F - 60.8 °F 88% 29.75 in 10.0 mi Calm Calm - N/A   Clear
1:32 AM 62.6 °F - 60.8 °F 94% 29.75 in 10.0 mi Calm Calm - N/A   Clear
1:53 AM 62.6 °F - 60.8 °F 94% 29.75 in 10.0 mi SW 5.8 mph - N/A   Clear
2:13 AM 62.6 °F - 60.8 °F 94% 29.75 in 10.0 mi Calm Calm - N/A   Clear
2:32 AM 62.6 °F - 60.8 °F 94% 29.75 in 10.0 mi Calm Calm - N/A   Clear
2:53 AM 60.8 °F - 59.0 °F 94% 29.75 in 10.0 mi Calm Calm - N/A   Clear
3:13 AM 60.8 °F - 59.0 °F 94% 29.76 in 10.0 mi SW 4.6 mph - N/A   Scattered Clouds
3:32 AM 62.6 °F - 60.8 °F 94% 29.74 in 10.0 mi Calm Calm - N/A   Scattered Clouds
3:53 AM 62.6 °F - 59.0 °F 88% 29.74 in 10.0 mi South 4.6 mph - N/A   Clear
4:13 AM 60.8 °F - 59.0 °F 94% 29.74 in 10.0 mi Calm Calm - N/A   Clear
4:32 AM 62.6 °F - 59.0 °F 88% 29.74 in 10.0 mi Calm Calm - N/A   Clear
4:53 AM 60.8 °F - 57.2 °F 88% 29.75 in 10.0 mi Calm Calm - N/A   Scattered Clouds
5:13 AM 60.8 °F - 57.2 °F 88% 29.75 in 10.0 mi SW 4.6 mph - N/A   Scattered Clouds
5:32 AM 60.8 °F - 57.2 °F 88% 29.75 in 10.0 mi WSW 3.5 mph - N/A   Clear
5:53 AM 60.8 °F - 55.4 °F 82% 29.75 in 10.0 mi WSW 3.5 mph - N/A   Clear
6:13 AM 60.8 °F - 57.2 °F 88% 29.75 in 10.0 mi SSW 4.6 mph - N/A   Clear
6:32 AM 60.8 °F - 55.4 °F 82% 29.74 in 10.0 mi SSW 3.5 mph - N/A   Clear
6:53 AM 62.6 °F - 57.2 °F 82% 29.74 in 10.0 mi SSW 3.5 mph - N/A   Clear
7:13 AM 64.4 °F - 57.2 °F 77% 29.74 in 10.0 mi Calm Calm - N/A   Clear
7:33 AM 66.2 °F - 57.2 °F 73% 29.74 in 10.0 mi SW 3.5 mph - N/A   Clear
7:53 AM 68.0 °F - 59.0 °F 73% 29.74 in 10.0 mi WSW 6.9 mph - N/A   Clear
8:12 AM 69.8 °F - 59.0 °F 68% 29.74 in 10.0 mi WSW 5.8 mph - N/A   Clear
8:33 AM 69.8 °F - 60.8 °F 73% 29.73 in 10.0 mi West 9.2 mph - N/A   Clear
8:53 AM 71.6 °F - 60.8 °F 69% 29.73 in 10.0 mi West 8.1 mph - N/A   Clear
9:12 AM 73.4 °F - 60.8 °F 65% 29.73 in 10.0 mi West 6.9 mph - N/A   Clear
9:31 AM 73.4 °F - 60.8 °F 65% 29.72 in 10.0 mi West 8.1 mph - N/A   Clear
9:49 AM 73.4 °F - 60.8 °F 65% 29.72 in 10.0 mi West 11.5 mph - N/A   Scattered Clouds
10:13 AM 75.2 °F - 60.8 °F 61% 29.72 in 10.0 mi WSW 8.1 mph - N/A   Scattered Clouds
10:33 AM 75.2 °F - 60.8 °F 61% 29.71 in 10.0 mi WSW 8.1 mph - N/A   Clear
10:52 AM 75.2 °F - 60.8 °F 61% 29.71 in 10.0 mi West 5.8 mph - N/A   Clear
11:13 AM 77.0 °F - 60.8 °F 57% 29.71 in 10.0 mi West 8.1 mph - N/A   Clear
11:33 AM 77.0 °F - 59.0 °F 54% 29.71 in 10.0 mi West 8.1 mph - N/A   Scattered Clouds
11:52 AM 77.0 °F - 57.2 °F 50% 29.70 in 10.0 mi West 11.5 mph 17.3 mph N/A   Scattered Clouds
12:13 PM 78.8 °F - 55.4 °F 44% 29.70 in 10.0 mi WNW 11.5 mph 18.4 mph N/A   Clear
12:33 PM 80.6 °F 80.5 °F 55.4 °F 42% 29.70 in 10.0 mi West 17.3 mph 25.3 mph N/A   Scattered Clouds
12:52 PM 78.8 °F - 57.2 °F 47% 29.69 in 10.0 mi West 11.5 mph 16.1 mph N/A   Scattered Clouds
1:13 PM 75.2 °F - 57.2 °F 53% 29.70 in 10.0 mi West 17.3 mph 25.3 mph N/A   Scattered Clouds
1:33 PM 66.2 °F - 57.2 °F 73% 29.71 in 10.0 mi West 12.7 mph 25.3 mph 0.01 in Rain Light Rain
1:52 PM 69.8 °F - 59.0 °F 68% 29.70 in 10.0 mi West 6.9 mph - 0.01 in   Clear
2:13 PM 69.8 °F - 60.8 °F 73% 29.70 in 10.0 mi West 6.9 mph 18.4 mph N/A Rain Light Rain
2:33 PM 75.2 °F - 62.6 °F 65% 29.70 in 10.0 mi WSW 4.6 mph - N/A Thunderstorm Clear
2:52 PM 77.0 °F - 62.6 °F 61% 29.70 in 10.0 mi NW 6.9 mph 17.3 mph N/A   Scattered Clouds
3:13 PM 78.8 °F - 62.6 °F 57% 29.69 in 10.0 mi WNW 9.2 mph - N/A   Scattered Clouds
3:33 PM 78.8 °F - 57.2 °F 47% 29.69 in 10.0 mi WNW 10.4 mph 21.9 mph N/A   Clear
3:52 PM 71.6 °F - 57.2 °F 60% 29.69 in 10.0 mi NW 9.2 mph 23.0 mph N/A Rain , Thunderstorm Light Thunderstorms and Rain
4:13 PM 77.0 °F - 57.2 °F 50% 29.69 in 10.0 mi West 9.2 mph - N/A Thunderstorm Scattered Clouds
4:32 PM 77.0 °F - 55.4 °F 47% 29.69 in 10.0 mi West 17.3 mph 25.3 mph N/A   Mostly Cloudy
4:53 PM 78.8 °F - 55.4 °F 44% 29.69 in 10.0 mi WNW 11.5 mph 24.2 mph N/A   Scattered Clouds
5:13 PM 78.8 °F - 53.6 °F 42% 29.69 in 10.0 mi WNW 18.4 mph 26.5 mph N/A   Scattered Clouds
5:32 PM 78.8 °F - 53.6 °F 42% 29.69 in 10.0 mi West 17.3 mph 27.6 mph N/A   Scattered Clouds
5:53 PM 77.0 °F - 53.6 °F 44% 29.70 in 10.0 mi WNW 13.8 mph 23.0 mph N/A   Clear
6:13 PM 78.8 °F - 53.6 °F 42% 29.70 in 10.0 mi WNW 13.8 mph 23.0 mph N/A   Clear
6:32 PM 75.2 °F - 53.6 °F 47% 29.70 in 10.0 mi WNW 12.7 mph 20.7 mph N/A   Scattered Clouds
6:53 PM 75.2 °F - 53.6 °F 47% 29.70 in 10.0 mi WNW 10.4 mph 16.1 mph N/A   Mostly Cloudy
7:13 PM 73.4 °F - 53.6 °F 50% 29.71 in 10.0 mi WNW 9.2 mph 19.6 mph N/A   Scattered Clouds
7:32 PM 73.4 °F - 53.6 °F 50% 29.70 in 10.0 mi WNW 3.5 mph - N/A   Scattered Clouds
7:53 PM 73.4 °F - 55.4 °F 53% 29.70 in 10.0 mi WNW 3.5 mph - N/A   Scattered Clouds
8:13 PM 69.8 °F - 57.2 °F 64% 29.72 in 10.0 mi NW 19.6 mph 25.3 mph N/A Rain Rain
8:32 PM 64.4 °F - 59.0 °F 83% 29.71 in 10.0 mi NNW 4.6 mph - 0.01 in   Mostly Cloudy
8:53 PM 64.4 °F - 60.8 °F 88% 29.71 in 10.0 mi Calm Calm - 0.01 in   Mostly Cloudy
9:13 PM 64.4 °F - 60.8 °F 88% 29.71 in 10.0 mi Calm Calm - N/A   Overcast
9:32 PM 62.6 °F - 60.8 °F 94% 29.71 in 10.0 mi Calm Calm - N/A   Overcast
9:53 PM 62.6 °F - 60.8 °F 94% 29.72 in 10.0 mi Calm Calm - N/A   Mostly Cloudy
10:13 PM 62.6 °F - 60.8 °F 94% 29.71 in 10.0 mi SW 3.5 mph - N/A   Mostly Cloudy
10:32 PM 62.6 °F - 59.0 °F 88% 29.71 in 10.0 mi SW 4.6 mph - N/A   Overcast
10:53 PM 62.6 °F - 59.0 °F 88% 29.70 in 10.0 mi WSW 3.5 mph - N/A   Overcast
11:13 PM 62.6 °F - 60.8 °F 94% 29.71 in 10.0 mi NNW 3.5 mph - N/A   Overcast
11:33 PM 62.6 °F - 60.8 °F 94% 29.70 in 10.0 mi WNW 5.8 mph - N/A   Overcast
11:53 PM 62.6 °F - 59.0 °F 88% 29.69 in 10.0 mi WNW 6.9 mph - N/A   Overcast